Data supplied by UK-AIR on 17/3/2023
All Data GMT hour ending 
Status: R =Ratified P=Provisional,P*=As supplied
,,Cambridge Roadside,,,,,,,,,,,,,,,,,,,,,,,
Date,time,"Nitric oxide",status,unit,"Nitrogen dioxide",status,unit,"Nitrogen oxides as nitrogen dioxide",status,unit
 
01-01-2022,01:00,6.44409,R,ugm-3,10.39927,R,ugm-3,20.28007,R,ugm-3
01-01-2022,02:00,5.02834,R,ugm-3,7.16204,R,ugm-3,14.87205,R,ugm-3
01-01-2022,03:00,6.40747,R,ugm-3,7.69507,R,ugm-3,17.51973,R,ugm-3
01-01-2022,04:00,6.29763,R,ugm-3,6.17349,R,ugm-3,15.82972,R,ugm-3
01-01-2022,05:00,6.73700,R,ugm-3,5.49980,R,ugm-3,15.82972,R,ugm-3
01-01-2022,06:00,4.17401,R,ugm-3,4.35964,R,ugm-3,10.75970,R,ugm-3
01-01-2022,07:00,3.95433,R,ugm-3,4.47116,R,ugm-3,10.53437,R,ugm-3
01-01-2022,08:00,4.02755,R,ugm-3,4.64054,R,ugm-3,10.81604,R,ugm-3
01-01-2022,09:00,4.35708,R,ugm-3,6.27595,R,ugm-3,12.95671,R,ugm-3
01-01-2022,10:00,4.57677,R,ugm-3,7.00944,R,ugm-3,14.02705,R,ugm-3
01-01-2022,11:00,5.16259,R,ugm-3,5.99852,R,ugm-3,13.91438,R,ugm-3
01-01-2022,12:00,5.38228,R,ugm-3,7.57701,R,ugm-3,15.82972,R,ugm-3
01-01-2022,13:00,5.23582,R,ugm-3,7.91424,R,ugm-3,15.94239,R,ugm-3
01-01-2022,14:00,5.67519,R,ugm-3,10.45156,R,ugm-3,19.15340,R,ugm-3
01-01-2022,15:00,6.99330,R,ugm-3,11.13450,R,ugm-3,21.85741,R,ugm-3
01-01-2022,16:00,5.82165,R,ugm-3,12.31134,R,ugm-3,21.23774,R,ugm-3
01-01-2022,17:00,6.29763,R,ugm-3,9.89150,R,ugm-3,19.54773,R,ugm-3
01-01-2022,18:00,6.48070,R,ugm-3,10.17413,R,ugm-3,20.11107,R,ugm-3
01-01-2022,19:00,6.66377,R,ugm-3,10.23143,R,ugm-3,20.44907,R,ugm-3
01-01-2022,20:00,6.37086,R,ugm-3,10.00456,R,ugm-3,19.77307,R,ugm-3
01-01-2022,21:00,6.26102,R,ugm-3,7.75064,R,ugm-3,17.35073,R,ugm-3
01-01-2022,22:00,6.81023,R,ugm-3,7.52819,R,ugm-3,17.97040,R,ugm-3
01-01-2022,23:00,5.60196,R,ugm-3,7.12750,R,ugm-3,15.71705,R,ugm-3
01-01-2022,24:00,5.49212,R,ugm-3,5.94392,R,ugm-3,14.36505,R,ugm-3
02-01-2022,01:00,6.15807,R,ugm-3,6.60786,R,ugm-3,16.05010,R,ugm-3
02-01-2022,02:00,5.13172,R,ugm-3,6.29775,R,ugm-3,14.16629,R,ugm-3
02-01-2022,03:00,5.24169,R,ugm-3,5.13072,R,ugm-3,13.16787,R,ugm-3
02-01-2022,04:00,4.83848,R,ugm-3,5.01428,R,ugm-3,12.43318,R,ugm-3
02-01-2022,05:00,4.80183,R,ugm-3,3.71413,R,ugm-3,11.07683,R,ugm-3
02-01-2022,06:00,5.86483,R,ugm-3,3.55360,R,ugm-3,12.54621,R,ugm-3
02-01-2022,07:00,5.53493,R,ugm-3,5.41578,R,ugm-3,13.90255,R,ugm-3
02-01-2022,08:00,6.52462,R,ugm-3,6.38491,R,ugm-3,16.38919,R,ugm-3
02-01-2022,09:00,5.97479,R,ugm-3,6.77585,R,ugm-3,15.93707,R,ugm-3
02-01-2022,10:00,7.99083,R,ugm-3,13.57467,R,ugm-3,25.82710,R,ugm-3
02-01-2022,11:00,7.25772,R,ugm-3,11.13834,R,ugm-3,22.26669,R,ugm-3
02-01-2022,12:00,10.19014,R,ugm-3,13.76285,R,ugm-3,29.38751,R,ugm-3
02-01-2022,13:00,10.77662,R,ugm-3,16.36749,R,ugm-3,32.89140,R,ugm-3
02-01-2022,14:00,15.50513,R,ugm-3,22.62415,R,ugm-3,46.39835,R,ugm-3
02-01-2022,15:00,17.52117,R,ugm-3,23.60198,R,ugm-3,50.46739,R,ugm-3
02-01-2022,16:00,12.20617,R,ugm-3,17.62292,R,ugm-3,36.33878,R,ugm-3
02-01-2022,17:00,13.41579,R,ugm-3,18.25483,R,ugm-3,38.82542,R,ugm-3
02-01-2022,18:00,9.71362,R,ugm-3,16.69756,R,ugm-3,31.59157,R,ugm-3
02-01-2022,19:00,10.81327,R,ugm-3,17.72414,R,ugm-3,34.30426,R,ugm-3
02-01-2022,20:00,8.28407,R,ugm-3,15.61167,R,ugm-3,28.31373,R,ugm-3
02-01-2022,21:00,6.63459,R,ugm-3,10.56791,R,ugm-3,20.74080,R,ugm-3
02-01-2022,22:00,6.08476,R,ugm-3,7.11587,R,ugm-3,16.44570,R,ugm-3
02-01-2022,23:00,6.08476,R,ugm-3,5.92907,R,ugm-3,15.25890,R,ugm-3
02-01-2022,24:00,5.13172,R,ugm-3,6.03402,R,ugm-3,13.90255,R,ugm-3
03-01-2022,01:00,3.71855,R,ugm-3,5.78856,R,ugm-3,11.49026,R,ugm-3
03-01-2022,02:00,3.37605,R,ugm-3,2.53403,R,ugm-3,7.71057,R,ugm-3
03-01-2022,03:00,3.74301,R,ugm-3,3.16197,R,ugm-3,8.90117,R,ugm-3
03-01-2022,04:00,2.75222,R,ugm-3,1.90309,R,ugm-3,6.12310,R,ugm-3
03-01-2022,05:00,2.67882,R,ugm-3,1.84554,R,ugm-3,5.95301,R,ugm-3
03-01-2022,06:00,3.26596,R,ugm-3,3.72335,R,ugm-3,8.73109,R,ugm-3
03-01-2022,07:00,4.14667,R,ugm-3,6.85188,R,ugm-3,13.21002,R,ugm-3
03-01-2022,08:00,4.84390,R,ugm-3,8.33410,R,ugm-3,15.76131,R,ugm-3
03-01-2022,09:00,4.80720,R,ugm-3,9.63767,R,ugm-3,17.00861,R,ugm-3
03-01-2022,10:00,9.24744,R,ugm-3,16.77645,R,ugm-3,30.95566,R,ugm-3
03-01-2022,11:00,8.18325,R,ugm-3,16.42384,R,ugm-3,28.97132,R,ugm-3
03-01-2022,12:00,9.98137,R,ugm-3,19.90326,R,ugm-3,35.20781,R,ugm-3
03-01-2022,13:00,15.59589,R,ugm-3,27.39594,R,ugm-3,51.30929,R,ugm-3
03-01-2022,14:00,15.96285,R,ugm-3,26.43640,R,ugm-3,50.91242,R,ugm-3
03-01-2022,15:00,9.65110,R,ugm-3,16.89455,R,ugm-3,31.69270,R,ugm-3
03-01-2022,16:00,11.88957,R,ugm-3,23.61075,R,ugm-3,41.84117,R,ugm-3
03-01-2022,17:00,17.50409,R,ugm-3,31.33020,R,ugm-3,58.16943,R,ugm-3
03-01-2022,18:00,12.69689,R,ugm-3,24.81078,R,ugm-3,44.27907,R,ugm-3
03-01-2022,19:00,11.00886,R,ugm-3,19.68848,R,ugm-3,36.56850,R,ugm-3
03-01-2022,20:00,8.40343,R,ugm-3,15.51929,R,ugm-3,28.40437,R,ugm-3
03-01-2022,21:00,10.12815,R,ugm-3,23.93035,R,ugm-3,39.45996,R,ugm-3
03-01-2022,22:00,9.43092,R,ugm-3,26.98375,R,ugm-3,41.44430,R,ugm-3
03-01-2022,23:00,12.25653,R,ugm-3,19.92984,R,ugm-3,38.72292,R,ugm-3
03-01-2022,24:00,6.23835,R,ugm-3,15.09713,R,ugm-3,24.66248,R,ugm-3
04-01-2022,01:00,8.32711,R,ugm-3,14.53255,R,ugm-3,27.30061,R,ugm-3
04-01-2022,02:00,3.86966,R,ugm-3,6.35188,R,ugm-3,12.28527,R,ugm-3
04-01-2022,03:00,3.82067,R,ugm-3,5.40322,R,ugm-3,11.26150,R,ugm-3
04-01-2022,04:00,3.82067,R,ugm-3,5.57385,R,ugm-3,11.43213,R,ugm-3
04-01-2022,05:00,4.66563,R,ugm-3,7.86147,R,ugm-3,15.01533,R,ugm-3
04-01-2022,06:00,5.73101,R,ugm-3,13.73558,R,ugm-3,22.52300,R,ugm-3
04-01-2022,07:00,18.73599,R,ugm-3,27.92064,R,ugm-3,56.64876,R,ugm-3
04-01-2022,08:00,9.47821,R,ugm-3,16.69202,R,ugm-3,31.22507,R,ugm-3
04-01-2022,09:00,7.82503,R,ugm-3,17.80495,R,ugm-3,29.80316,R,ugm-3
04-01-2022,10:00,11.20486,R,ugm-3,21.43844,R,ugm-3,38.61898,R,ugm-3
04-01-2022,11:00,17.22976,R,ugm-3,26.47632,R,ugm-3,52.89492,R,ugm-3
04-01-2022,12:00,19.98506,R,ugm-3,31.86369,R,ugm-3,62.50701,R,ugm-3
04-01-2022,13:00,22.55666,R,ugm-3,30.76442,R,ugm-3,65.35082,R,ugm-3
04-01-2022,14:00,39.30884,R,ugm-3,41.53579,R,ugm-3,101.80851,R,ugm-3
04-01-2022,15:00,53.45268,R,ugm-3,46.75135,R,ugm-3,128.71098,R,ugm-3
04-01-2022,16:00,35.96575,R,ugm-3,43.02171,R,ugm-3,98.16843,R,ugm-3
04-01-2022,17:00,42.10087,R,ugm-3,55.68265,R,ugm-3,120.23642,R,ugm-3
04-01-2022,18:00,32.07161,R,ugm-3,44.44255,R,ugm-3,93.61833,R,ugm-3
04-01-2022,19:00,29.86737,R,ugm-3,35.36642,R,ugm-3,81.16242,R,ugm-3
04-01-2022,20:00,17.78082,R,ugm-3,30.12460,R,ugm-3,57.38815,R,ugm-3
04-01-2022,21:00,15.42964,R,ugm-3,27.98520,R,ugm-3,51.64365,R,ugm-3
04-01-2022,22:00,9.00062,R,ugm-3,22.37254,R,ugm-3,36.17330,R,ugm-3
04-01-2022,23:00,9.62516,R,ugm-3,24.42938,R,ugm-3,39.18775,R,ugm-3
04-01-2022,24:00,6.79639,R,ugm-3,16.99337,R,ugm-3,27.41436,R,ugm-3
05-01-2022,01:00,5.39415,R,ugm-3,14.70411,R,ugm-3,22.97502,R,ugm-3
05-01-2022,02:00,3.53072,R,ugm-3,8.50827,R,ugm-3,13.92195,R,ugm-3
05-01-2022,03:00,3.93528,R,ugm-3,9.02909,R,ugm-3,15.06309,R,ugm-3
05-01-2022,04:00,3.64105,R,ugm-3,9.08083,R,ugm-3,14.66369,R,ugm-3
05-01-2022,05:00,3.60427,R,ugm-3,9.36545,R,ugm-3,14.89192,R,ugm-3
05-01-2022,06:00,4.04561,R,ugm-3,10.00106,R,ugm-3,16.20424,R,ugm-3
05-01-2022,07:00,11.84260,R,ugm-3,19.78462,R,ugm-3,37.94302,R,ugm-3
05-01-2022,08:00,15.92499,R,ugm-3,29.72928,R,ugm-3,54.14726,R,ugm-3
05-01-2022,09:00,17.54324,R,ugm-3,31.47024,R,ugm-3,58.36949,R,ugm-3
05-01-2022,10:00,20.66939,R,ugm-3,31.75496,R,ugm-3,63.44758,R,ugm-3
05-01-2022,11:00,23.90588,R,ugm-3,35.00864,R,ugm-3,71.66381,R,ugm-3
05-01-2022,12:00,18.31558,R,ugm-3,32.34005,R,ugm-3,60.42355,R,ugm-3
05-01-2022,13:00,33.17400,R,ugm-3,39.22718,R,ugm-3,90.09328,R,ugm-3
05-01-2022,14:00,30.41563,R,ugm-3,40.31848,R,ugm-3,86.95513,R,ugm-3
05-01-2022,15:00,44.72238,R,ugm-3,49.93439,R,ugm-3,118.50775,R,ugm-3
05-01-2022,16:00,42.18468,R,ugm-3,47.09273,R,ugm-3,111.77500,R,ugm-3
05-01-2022,17:00,62.37595,R,ugm-3,61.49367,R,ugm-3,157.13545,R,ugm-3
05-01-2022,18:00,67.26746,R,ugm-3,60.32680,R,ugm-3,163.46880,R,ugm-3
05-01-2022,19:00,54.61573,R,ugm-3,53.87894,R,ugm-3,137.62190,R,ugm-3
05-01-2022,20:00,27.51015,R,ugm-3,44.43115,R,ugm-3,86.61279,R,ugm-3
05-01-2022,21:00,23.35420,R,ugm-3,40.64733,R,ugm-3,76.45661,R,ugm-3
05-01-2022,22:00,18.79370,R,ugm-3,36.28564,R,ugm-3,65.10223,R,ugm-3
05-01-2022,23:00,16.69734,R,ugm-3,34.87838,R,ugm-3,60.48060,R,ugm-3
05-01-2022,24:00,10.15080,R,ugm-3,24.71802,R,ugm-3,40.28236,R,ugm-3
06-01-2022,01:00,7.80569,R,ugm-3,24.20591,R,ugm-3,36.17447,R,ugm-3
06-01-2022,02:00,7.06931,R,ugm-3,28.38772,R,ugm-3,39.22717,R,ugm-3
06-01-2022,03:00,7.47432,R,ugm-3,30.26610,R,ugm-3,41.72656,R,ugm-3
06-01-2022,04:00,7.21659,R,ugm-3,32.43567,R,ugm-3,43.50095,R,ugm-3
06-01-2022,05:00,8.46844,R,ugm-3,32.46228,R,ugm-3,45.44704,R,ugm-3
06-01-2022,06:00,10.12531,R,ugm-3,34.32911,R,ugm-3,49.85437,R,ugm-3
06-01-2022,07:00,45.91368,R,ugm-3,41.09980,R,ugm-3,111.49979,R,ugm-3
06-01-2022,08:00,62.96102,R,ugm-3,46.72805,R,ugm-3,143.26693,R,ugm-3
06-01-2022,09:00,76.51052,R,ugm-3,53.71290,R,ugm-3,171.02740,R,ugm-3
06-01-2022,10:00,63.62377,R,ugm-3,51.20670,R,ugm-3,148.76178,R,ugm-3
06-01-2022,11:00,48.49103,R,ugm-3,45.39020,R,ugm-3,119.74207,R,ugm-3
06-01-2022,12:00,39.24938,R,ugm-3,53.26434,R,ugm-3,113.44589,R,ugm-3
06-01-2022,13:00,32.76918,R,ugm-3,51.75289,R,ugm-3,101.99827,R,ugm-3
06-01-2022,14:00,36.00928,R,ugm-3,53.65337,R,ugm-3,108.86684,R,ugm-3
06-01-2022,15:00,29.38181,R,ugm-3,54.19936,R,ugm-3,99.25084,R,ugm-3
06-01-2022,16:00,25.25805,R,ugm-3,42.60686,R,ugm-3,81.33532,R,ugm-3
06-01-2022,17:00,26.76764,R,ugm-3,44.24161,R,ugm-3,85.28475,R,ugm-3
06-01-2022,18:00,18.07828,R,ugm-3,36.55873,R,ugm-3,64.27837,R,ugm-3
06-01-2022,19:00,13.77042,R,ugm-3,24.27545,R,ugm-3,45.38980,R,ugm-3
06-01-2022,20:00,11.00897,R,ugm-3,18.55019,R,ugm-3,35.43037,R,ugm-3
06-01-2022,21:00,6.33292,R,ugm-3,13.52832,R,ugm-3,23.23866,R,ugm-3
06-01-2022,22:00,7.06931,R,ugm-3,14.00188,R,ugm-3,24.84133,R,ugm-3
06-01-2022,23:00,6.03837,R,ugm-3,12.14834,R,ugm-3,21.40705,R,ugm-3
06-01-2022,24:00,4.78651,R,ugm-3,10.34736,R,ugm-3,17.68657,R,ugm-3
07-01-2022,01:00,3.73518,R,ugm-3,8.20648,R,ugm-3,13.93368,R,ugm-3
07-01-2022,02:00,3.14542,R,ugm-3,5.05316,R,ugm-3,9.87607,R,ugm-3
07-01-2022,03:00,2.98569,R,ugm-3,4.60905,R,ugm-3,9.18704,R,ugm-3
07-01-2022,04:00,3.05941,R,ugm-3,4.43859,R,ugm-3,9.12962,R,ugm-3
07-01-2022,05:00,2.98569,R,ugm-3,4.83872,R,ugm-3,9.41672,R,ugm-3
07-01-2022,06:00,4.01778,R,ugm-3,9.22779,R,ugm-3,15.38829,R,ugm-3
07-01-2022,07:00,13.49089,R,ugm-3,22.66561,R,ugm-3,43.35134,R,ugm-3
07-01-2022,08:00,19.13052,R,ugm-3,31.99044,R,ugm-3,61.32349,R,ugm-3
07-01-2022,09:00,24.99131,R,ugm-3,39.19617,R,ugm-3,77.51565,R,ugm-3
07-01-2022,10:00,22.52167,R,ugm-3,36.26488,R,ugm-3,70.79763,R,ugm-3
07-01-2022,11:00,30.63095,R,ugm-3,41.86039,R,ugm-3,88.82719,R,ugm-3
07-01-2022,12:00,22.96400,R,ugm-3,28.69638,R,ugm-3,63.90735,R,ugm-3
07-01-2022,13:00,16.07111,R,ugm-3,27.60926,R,ugm-3,52.25129,R,ugm-3
07-01-2022,14:00,25.13876,R,ugm-3,34.89334,R,ugm-3,73.43890,R,ugm-3
07-01-2022,15:00,28.05072,R,ugm-3,45.24249,R,ugm-3,88.25300,R,ugm-3
07-01-2022,16:00,55.43796,R,ugm-3,68.99407,R,ugm-3,153.99775,R,ugm-3
07-01-2022,17:00,89.23890,R,ugm-3,70.16442,R,ugm-3,206.99549,R,ugm-3
07-01-2022,18:00,57.05981,R,ugm-3,66.50726,R,ugm-3,153.99775,R,ugm-3
07-01-2022,19:00,42.13137,R,ugm-3,58.33353,R,ugm-3,122.93407,R,ugm-3
07-01-2022,20:00,32.91629,R,ugm-3,46.16524,R,ugm-3,96.63617,R,ugm-3
07-01-2022,21:00,23.00086,R,ugm-3,43.51138,R,ugm-3,78.77886,R,ugm-3
07-01-2022,22:00,12.97484,R,ugm-3,30.00263,R,ugm-3,49.89711,R,ugm-3
07-01-2022,23:00,9.69427,R,ugm-3,23.03220,R,ugm-3,37.89654,R,ugm-3
07-01-2022,24:00,10.21032,R,ugm-3,24.13577,R,ugm-3,39.79137,R,ugm-3
08-01-2022,01:00,7.13427,R,ugm-3,19.01290,R,ugm-3,29.95195,R,ugm-3
08-01-2022,02:00,5.90422,R,ugm-3,13.98695,R,ugm-3,23.03996,R,ugm-3
08-01-2022,03:00,4.83408,R,ugm-3,12.05662,R,ugm-3,19.46877,R,ugm-3
08-01-2022,04:00,5.68281,R,ugm-3,15.30564,R,ugm-3,24.01916,R,ugm-3
08-01-2022,05:00,3.54253,R,ugm-3,12.42416,R,ugm-3,17.85597,R,ugm-3
08-01-2022,06:00,3.57943,R,ugm-3,12.88598,R,ugm-3,18.37437,R,ugm-3
08-01-2022,07:00,10.62760,R,ugm-3,19.01332,R,ugm-3,35.30875,R,ugm-3
08-01-2022,08:00,10.70140,R,ugm-3,20.57056,R,ugm-3,36.97914,R,ugm-3
08-01-2022,09:00,11.47633,R,ugm-3,19.20955,R,ugm-3,36.80634,R,ugm-3
08-01-2022,10:00,12.50957,R,ugm-3,19.12287,R,ugm-3,38.30394,R,ugm-3
08-01-2022,11:00,13.83802,R,ugm-3,21.57874,R,ugm-3,42.79673,R,ugm-3
08-01-2022,12:00,18.81971,R,ugm-3,27.59144,R,ugm-3,56.44791,R,ugm-3
08-01-2022,13:00,23.17407,R,ugm-3,28.86362,R,ugm-3,64.39670,R,ugm-3
08-01-2022,14:00,32.54702,R,ugm-3,36.37993,R,ugm-3,86.28467,R,ugm-3
08-01-2022,15:00,22.25153,R,ugm-3,33.79175,R,ugm-3,67.91029,R,ugm-3
08-01-2022,16:00,25.09294,R,ugm-3,32.43019,R,ugm-3,70.90549,R,ugm-3
08-01-2022,17:00,32.87913,R,ugm-3,39.90270,R,ugm-3,90.31666,R,ugm-3
08-01-2022,18:00,24.79773,R,ugm-3,40.42842,R,ugm-3,78.45108,R,ugm-3
08-01-2022,19:00,17.41745,R,ugm-3,31.12392,R,ugm-3,57.83031,R,ugm-3
08-01-2022,20:00,11.43943,R,ugm-3,20.93653,R,ugm-3,38.47674,R,ugm-3
08-01-2022,21:00,11.18112,R,ugm-3,18.45260,R,ugm-3,35.59675,R,ugm-3
08-01-2022,22:00,8.26591,R,ugm-3,18.54493,R,ugm-3,31.21915,R,ugm-3
08-01-2022,23:00,12.87858,R,ugm-3,24.89305,R,ugm-3,44.63993,R,ugm-3
08-01-2022,24:00,8.41352,R,ugm-3,16.01461,R,ugm-3,28.91515,R,ugm-3
09-01-2022,01:00,7.28997,R,ugm-3,12.01157,R,ugm-3,23.18937,R,ugm-3
09-01-2022,02:00,4.72863,R,ugm-3,7.15622,R,ugm-3,14.40669,R,ugm-3
09-01-2022,03:00,5.02417,R,ugm-3,8.24389,R,ugm-3,15.94751,R,ugm-3
09-01-2022,04:00,5.13500,R,ugm-3,8.42064,R,ugm-3,16.29419,R,ugm-3
09-01-2022,05:00,4.72863,R,ugm-3,8.87039,R,ugm-3,16.12085,R,ugm-3
09-01-2022,06:00,7.83179,R,ugm-3,16.76627,R,ugm-3,28.77485,R,ugm-3
09-01-2022,07:00,5.39359,R,ugm-3,11.54876,R,ugm-3,19.81882,R,ugm-3
09-01-2022,08:00,4.65475,R,ugm-3,12.79721,R,ugm-3,19.93438,R,ugm-3
09-01-2022,09:00,8.94007,R,ugm-3,22.75179,R,ugm-3,36.45970,R,ugm-3
09-01-2022,10:00,11.37827,R,ugm-3,22.88459,R,ugm-3,40.33101,R,ugm-3
09-01-2022,11:00,10.41776,R,ugm-3,21.17939,R,ugm-3,37.15307,R,ugm-3
09-01-2022,12:00,11.41521,R,ugm-3,19.88112,R,ugm-3,37.38419,R,ugm-3
09-01-2022,13:00,14.25977,R,ugm-3,22.85768,R,ugm-3,44.72236,R,ugm-3
09-01-2022,14:00,17.17823,R,ugm-3,24.16086,R,ugm-3,50.50044,R,ugm-3
09-01-2022,15:00,14.81391,R,ugm-3,31.19516,R,ugm-3,53.90951,R,ugm-3
09-01-2022,16:00,24.89919,R,ugm-3,39.47920,R,ugm-3,77.65743,R,ugm-3
09-01-2022,17:00,25.97052,R,ugm-3,46.73476,R,ugm-3,86.55567,R,ugm-3
09-01-2022,18:00,31.62271,R,ugm-3,48.06428,R,ugm-3,96.55175,R,ugm-3
09-01-2022,19:00,18.47121,R,ugm-3,39.80146,R,ugm-3,68.12359,R,ugm-3
09-01-2022,20:00,15.47887,R,ugm-3,37.51373,R,ugm-3,61.24767,R,ugm-3
09-01-2022,21:00,12.22794,R,ugm-3,32.96459,R,ugm-3,51.71384,R,ugm-3
09-01-2022,22:00,14.96168,R,ugm-3,34.78212,R,ugm-3,57.72304,R,ugm-3
09-01-2022,23:00,12.37571,R,ugm-3,35.62705,R,ugm-3,54.60288,R,ugm-3
09-01-2022,24:00,11.19355,R,ugm-3,35.01287,R,ugm-3,52.17608,R,ugm-3
10-01-2022,01:00,9.81294,R,ugm-3,33.40971,R,ugm-3,48.45601,R,ugm-3
10-01-2022,02:00,3.94490,R,ugm-3,27.02806,R,ugm-3,33.07683,R,ugm-3
10-01-2022,03:00,3.73533,R,ugm-3,23.48529,R,ugm-3,29.21272,R,ugm-3
10-01-2022,04:00,5.10372,R,ugm-3,25.09668,R,ugm-3,32.92227,R,ugm-3
10-01-2022,05:00,3.69835,R,ugm-3,23.77384,R,ugm-3,29.44456,R,ugm-3
10-01-2022,06:00,6.06529,R,ugm-3,29.94012,R,ugm-3,39.24009,R,ugm-3
10-01-2022,07:00,40.09006,R,ugm-3,52.54016,R,ugm-3,114.01073,R,ugm-3
10-01-2022,08:00,78.18302,R,ugm-3,59.33872,R,ugm-3,179.21768,R,ugm-3
10-01-2022,09:00,83.76752,R,ugm-3,62.19440,R,ugm-3,190.63615,R,ugm-3
10-01-2022,10:00,82.62104,R,ugm-3,69.69053,R,ugm-3,196.37436,R,ugm-3
10-01-2022,11:00,73.22724,R,ugm-3,67.05341,R,ugm-3,179.33361,R,ugm-3
10-01-2022,12:00,73.07931,R,ugm-3,66.52673,R,ugm-3,178.58010,R,ugm-3
10-01-2022,13:00,61.94729,R,ugm-3,68.40961,R,ugm-3,163.39413,R,ugm-3
10-01-2022,14:00,34.69048,R,ugm-3,57.63151,R,ugm-3,110.82284,R,ugm-3
10-01-2022,15:00,50.85225,R,ugm-3,55.86128,R,ugm-3,133.83364,R,ugm-3
10-01-2022,16:00,39.68325,R,ugm-3,59.59769,R,ugm-3,120.44448,R,ugm-3
10-01-2022,17:00,45.26775,R,ugm-3,55.09223,R,ugm-3,124.50181,R,ugm-3
10-01-2022,18:00,36.87250,R,ugm-3,57.24183,R,ugm-3,113.77888,R,ugm-3
10-01-2022,19:00,26.14730,R,ugm-3,45.22770,R,ugm-3,85.31967,R,ugm-3
10-01-2022,20:00,20.56280,R,ugm-3,40.63317,R,ugm-3,72.16236,R,ugm-3
10-01-2022,21:00,16.16177,R,ugm-3,32.42720,R,ugm-3,57.20823,R,ugm-3
10-01-2022,22:00,10.94710,R,ugm-3,27.61337,R,ugm-3,44.39869,R,ugm-3
10-01-2022,23:00,8.95000,R,ugm-3,29.34243,R,ugm-3,43.06557,R,ugm-3
10-01-2022,24:00,5.84339,R,ugm-3,19.67336,R,ugm-3,28.63310,R,ugm-3
11-01-2022,01:00,5.08470,R,ugm-3,16.77853,R,ugm-3,24.57496,R,ugm-3
11-01-2022,02:00,3.65308,R,ugm-3,14.70985,R,ugm-3,20.31117,R,ugm-3
11-01-2022,03:00,3.22113,R,ugm-3,14.48065,R,ugm-3,19.41964,R,ugm-3
11-01-2022,04:00,3.81352,R,ugm-3,12.81647,R,ugm-3,18.66379,R,ugm-3
11-01-2022,05:00,3.62840,R,ugm-3,9.26291,R,ugm-3,14.82638,R,ugm-3
11-01-2022,06:00,4.14674,R,ugm-3,8.99141,R,ugm-3,15.34966,R,ugm-3
11-01-2022,07:00,16.62400,R,ugm-3,24.33848,R,ugm-3,49.82825,R,ugm-3
11-01-2022,08:00,32.17428,R,ugm-3,37.99704,R,ugm-3,87.33026,R,ugm-3
11-01-2022,09:00,41.39338,R,ugm-3,46.94392,R,ugm-3,110.41289,R,ugm-3
11-01-2022,10:00,42.13387,R,ugm-3,44.47124,R,ugm-3,109.07561,R,ugm-3
11-01-2022,11:00,62.42329,R,ugm-3,53.77037,R,ugm-3,149.48475,R,ugm-3
11-01-2022,12:00,62.01602,R,ugm-3,57.94154,R,ugm-3,153.03145,R,ugm-3
11-01-2022,13:00,77.19606,R,ugm-3,54.72501,R,ugm-3,173.09066,R,ugm-3
11-01-2022,14:00,65.94062,R,ugm-3,53.78447,R,ugm-3,154.89201,R,ugm-3
11-01-2022,15:00,28.10159,R,ugm-3,45.46275,R,ugm-3,88.55125,R,ugm-3
11-01-2022,16:00,30.95247,R,ugm-3,40.68445,R,ugm-3,88.14425,R,ugm-3
11-01-2022,17:00,24.80641,R,ugm-3,43.77074,R,ugm-3,81.80670,R,ugm-3
11-01-2022,18:00,26.32441,R,ugm-3,41.55945,R,ugm-3,81.92299,R,ugm-3
11-01-2022,19:00,21.06694,R,ugm-3,35.55028,R,ugm-3,67.85247,R,ugm-3
11-01-2022,20:00,19.40083,R,ugm-3,39.09337,R,ugm-3,68.84090,R,ugm-3
11-01-2022,21:00,16.40185,R,ugm-3,33.63306,R,ugm-3,58.78222,R,ugm-3
11-01-2022,22:00,11.03330,R,ugm-3,26.98021,R,ugm-3,43.89770,R,ugm-3
11-01-2022,23:00,15.25409,R,ugm-3,30.50896,R,ugm-3,53.89823,R,ugm-3
11-01-2022,24:00,10.32983,R,ugm-3,27.88441,R,ugm-3,43.72327,R,ugm-3
12-01-2022,01:00,23.77136,R,ugm-3,37.19431,R,ugm-3,73.64322,R,ugm-3
12-01-2022,02:00,5.23860,R,ugm-3,32.48303,R,ugm-3,40.51543,R,ugm-3
12-01-2022,03:00,6.82006,R,ugm-3,30.95245,R,ugm-3,41.40973,R,ugm-3
12-01-2022,04:00,7.78376,R,ugm-3,29.94138,R,ugm-3,41.87632,R,ugm-3
12-01-2022,05:00,7.07952,R,ugm-3,27.28850,R,ugm-3,38.14361,R,ugm-3
12-01-2022,06:00,9.37758,R,ugm-3,27.78918,R,ugm-3,42.16793,R,ugm-3
12-01-2022,07:00,49.33422,R,ugm-3,40.06920,R,ugm-3,115.71394,R,ugm-3
12-01-2022,08:00,108.04601,R,ugm-3,65.17641,R,ugm-3,230.84465,R,ugm-3
12-01-2022,09:00,120.79655,R,ugm-3,54.37438,R,ugm-3,239.59318,R,ugm-3
12-01-2022,10:00,106.11861,R,ugm-3,64.92392,R,ugm-3,227.63685,R,ugm-3
12-01-2022,11:00,88.47541,R,ugm-3,50.68336,R,ugm-3,186.34377,R,ugm-3
12-01-2022,12:00,65.56892,R,ugm-3,49.12065,R,ugm-3,149.65825,R,ugm-3
12-01-2022,13:00,71.75886,R,ugm-3,51.29425,R,ugm-3,161.32297,R,ugm-3
12-01-2022,14:00,80.54339,R,ugm-3,55.84680,R,ugm-3,179.34494,R,ugm-3
12-01-2022,15:00,102.93097,R,ugm-3,72.72774,R,ugm-3,230.55303,R,ugm-3
12-01-2022,16:00,,,,,,,,,
12-01-2022,17:00,102.78271,R,ugm-3,68.46416,R,ugm-3,226.06212,R,ugm-3
12-01-2022,18:00,113.53171,R,ugm-3,72.86242,R,ugm-3,246.94195,R,ugm-3
12-01-2022,19:00,63.86390,R,ugm-3,57.80062,R,ugm-3,155.72390,R,ugm-3
12-01-2022,20:00,50.70564,R,ugm-3,49.22282,R,ugm-3,126.97039,R,ugm-3
12-01-2022,21:00,53.63382,R,ugm-3,54.99796,R,ugm-3,137.23534,R,ugm-3
12-01-2022,22:00,24.57444,R,ugm-3,54.76255,R,ugm-3,92.44284,R,ugm-3
12-01-2022,23:00,25.27869,R,ugm-3,48.14199,R,ugm-3,86.90210,R,ugm-3
12-01-2022,24:00,24.90804,R,ugm-3,47.77714,R,ugm-3,85.96893,R,ugm-3
13-01-2022,01:00,16.22619,R,ugm-3,44.91587,R,ugm-3,69.79568,R,ugm-3
13-01-2022,02:00,6.72793,R,ugm-3,39.19383,R,ugm-3,49.50985,R,ugm-3
13-01-2022,03:00,6.49295,R,ugm-3,35.33764,R,ugm-3,45.29335,R,ugm-3
13-01-2022,04:00,5.30567,R,ugm-3,31.97007,R,ugm-3,40.10531,R,ugm-3
13-01-2022,05:00,5.63959,R,ugm-3,32.04099,R,ugm-3,40.68824,R,ugm-3
13-01-2022,06:00,9.98059,R,ugm-3,35.23633,R,ugm-3,50.53969,R,ugm-3
13-01-2022,07:00,35.84107,R,ugm-3,42.04334,R,ugm-3,96.99889,R,ugm-3
13-01-2022,08:00,121.54799,R,ugm-3,63.52939,R,ugm-3,249.90038,R,ugm-3
13-01-2022,09:00,102.84830,R,ugm-3,60.14092,R,ugm-3,217.83945,R,ugm-3
13-01-2022,10:00,83.18394,R,ugm-3,62.89500,R,ugm-3,190.44193,R,ugm-3
13-01-2022,11:00,63.11146,R,ugm-3,50.06951,R,ugm-3,146.83906,R,ugm-3
13-01-2022,12:00,56.80402,R,ugm-3,58.22517,R,ugm-3,145.32346,R,ugm-3
13-01-2022,13:00,62.48072,R,ugm-3,54.88395,R,ugm-3,150.68638,R,ugm-3
13-01-2022,14:00,63.66800,R,ugm-3,59.47566,R,ugm-3,157.09856,R,ugm-3
13-01-2022,15:00,94.42602,R,ugm-3,68.97443,R,ugm-3,213.75897,R,ugm-3
13-01-2022,16:00,100.47374,R,ugm-3,71.88454,R,ugm-3,225.94213,R,ugm-3
13-01-2022,17:00,149.44912,R,ugm-3,76.88404,R,ugm-3,306.03616,R,ugm-3
13-01-2022,18:00,103.51615,R,ugm-3,71.47494,R,ugm-3,230.19749,R,ugm-3
13-01-2022,19:00,96.72638,R,ugm-3,72.90871,R,ugm-3,221.22042,R,ugm-3
13-01-2022,20:00,53.72451,R,ugm-3,63.52995,R,ugm-3,145.90638,R,ugm-3
13-01-2022,21:00,31.94531,R,ugm-3,52.27213,R,ugm-3,101.25425,R,ugm-3
13-01-2022,22:00,28.53187,R,ugm-3,51.67673,R,ugm-3,95.42499,R,ugm-3
13-01-2022,23:00,31.75979,R,ugm-3,54.48023,R,ugm-3,103.17790,R,ugm-3
13-01-2022,24:00,24.48769,R,ugm-3,52.80626,R,ugm-3,90.35353,R,ugm-3
14-01-2022,01:00,16.44046,R,ugm-3,47.89059,R,ugm-3,73.09894,R,ugm-3
14-01-2022,02:00,12.33035,R,ugm-3,44.87081,R,ugm-3,63.77708,R,ugm-3
14-01-2022,03:00,11.32758,R,ugm-3,46.36953,R,ugm-3,63.73824,R,ugm-3
14-01-2022,04:00,15.33865,R,ugm-3,46.27851,R,ugm-3,69.79745,R,ugm-3
14-01-2022,05:00,15.07868,R,ugm-3,45.10407,R,ugm-3,68.22439,R,ugm-3
14-01-2022,06:00,18.79264,R,ugm-3,45.46862,R,ugm-3,74.28360,R,ugm-3
14-01-2022,07:00,63.95438,R,ugm-3,55.86524,R,ugm-3,153.92726,R,ugm-3
14-01-2022,08:00,90.73203,R,ugm-3,69.45618,R,ugm-3,208.57669,R,ugm-3
14-01-2022,09:00,107.44485,R,ugm-3,57.69648,R,ugm-3,222.44296,R,ugm-3
14-01-2022,10:00,125.08616,R,ugm-3,71.54653,R,ugm-3,263.34263,R,ugm-3
14-01-2022,11:00,111.23309,R,ugm-3,55.73320,R,ugm-3,226.28823,R,ugm-3
14-01-2022,12:00,88.13226,R,ugm-3,58.11962,R,ugm-3,193.25388,R,ugm-3
14-01-2022,13:00,78.43883,R,ugm-3,58.88337,R,ugm-3,179.15456,R,ugm-3
14-01-2022,14:00,42.85909,R,ugm-3,52.14695,R,ugm-3,117.86331,R,ugm-3
14-01-2022,15:00,49.02427,R,ugm-3,65.41585,R,ugm-3,140.58535,R,ugm-3
14-01-2022,16:00,54.00097,R,ugm-3,59.94069,R,ugm-3,142.74103,R,ugm-3
14-01-2022,17:00,110.19318,R,ugm-3,71.71833,R,ugm-3,240.67885,R,ugm-3
14-01-2022,18:00,141.65042,R,ugm-3,81.39665,R,ugm-3,298.59093,R,ugm-3
14-01-2022,19:00,171.69635,R,ugm-3,82.63531,R,ugm-3,345.89938,R,ugm-3
14-01-2022,20:00,127.05456,R,ugm-3,73.24756,R,ugm-3,268.06183,R,ugm-3
14-01-2022,21:00,165.41976,R,ugm-3,71.05205,R,ugm-3,324.69214,R,ugm-3
14-01-2022,22:00,121.78074,R,ugm-3,58.08757,R,ugm-3,244.81543,R,ugm-3
14-01-2022,23:00,59.31194,R,ugm-3,50.63210,R,ugm-3,141.57580,R,ugm-3
14-01-2022,24:00,25.88630,R,ugm-3,41.58322,R,ugm-3,81.27499,R,ugm-3
15-01-2022,01:00,13.87928,R,ugm-3,32.21333,R,ugm-3,53.49459,R,ugm-3
15-01-2022,02:00,10.60773,R,ugm-3,32.95938,R,ugm-3,49.22434,R,ugm-3
15-01-2022,03:00,7.28662,R,ugm-3,27.14313,R,ugm-3,38.31579,R,ugm-3
15-01-2022,04:00,15.87442,R,ugm-3,32.43448,R,ugm-3,56.77492,R,ugm-3
15-01-2022,05:00,11.67346,R,ugm-3,23.91057,R,ugm-3,41.80963,R,ugm-3
15-01-2022,06:00,9.14545,R,ugm-3,21.90551,R,ugm-3,35.92833,R,ugm-3
15-01-2022,07:00,24.46222,R,ugm-3,33.59145,R,ugm-3,71.09967,R,ugm-3
15-01-2022,08:00,18.51396,R,ugm-3,34.21031,R,ugm-3,62.59799,R,ugm-3
15-01-2022,09:00,21.59962,R,ugm-3,41.29986,R,ugm-3,74.41882,R,ugm-3
15-01-2022,10:00,49.48210,R,ugm-3,46.87880,R,ugm-3,122.75029,R,ugm-3
15-01-2022,11:00,46.54514,R,ugm-3,45.73369,R,ugm-3,117.10191,R,ugm-3
15-01-2022,12:00,50.74610,R,ugm-3,39.58346,R,ugm-3,117.39307,R,ugm-3
15-01-2022,13:00,58.77625,R,ugm-3,49.51486,R,ugm-3,139.63719,R,ugm-3
15-01-2022,14:00,77.88504,R,ugm-3,59.75376,R,ugm-3,179.17582,R,ugm-3